Flag for Madagascar Weather past 2 weeks in Antananarivo, Madagascar

Now
68 °F

Passing clouds.


Feels Like: 68 °F
Forecast: 63 / 80 °F
Wind: 6 mph from East

Location: Antananarivo / Ivato

Current Time: Jan 30, 2015 at 1:36:31 AM

Latest Report: Jan 30, 2015 at 1:00 AM


Visibility: N/A

Pressure: 30.07 "Hg

Humidity: 100%

Dew point: 68 °F

Location of AntananarivoLocation

Historic Weather in Antananarivo — Graph

°F

Antananarivo temperature yesterday

Maximum temperature yesterday: 86 °F (at 2:00 PM)
Minimum temperature yesterday: 64 °F (at 4:00 AM)
Average temperature yesterday: 74 °F

Past Weeks' High & Low Weather Summary

 TemperatureHumidityPressure
High86 °F (Jan 20, 1:30 PM)100% (Jan 15, 12:00 AM)30.39 "Hg (Jan 15, 12:00 AM)
Low61 °F (Jan 24, 2:00 AM)48% (Jan 29, 2:30 PM)29.71 "Hg (Jan 17, 2:30 AM)
Average70 °F94%30.03 "Hg
* Reported Midnight between Jan 14 and Jan 15 — Midnight between Jan 29 and Jan 30, Antananarivo, Weather by CustomWeather, © 2014

Note: Actual official high and low records may vary slightly from our data, if they occured in-between our weather recording intervals... More about our weather records

Advertising

Antananarivo weather history for previous 24 hours

 ConditionsComfort  
Time TempWeatherWind HumidityBarometerVisibility
12:00 AM
Jan 30
68 °FThundershowers. Passing clouds.8 mph100%30.09 "HgN/A
11:30 PM
Jan 29
68 °FThundershowers. Passing clouds.8 mph100%30.09 "HgN/A
11:00 PM70 °FThundershowers. Passing clouds.7 mph100%30.09 "HgN/A
10:30 PM70 °FThunderstorms. Passing clouds.8 mph100%30.09 "HgN/A
10:00 PM70 °FThunderstorms. Passing clouds.8 mph100%30.09 "HgN/A
9:30 PM70 °FThunderstorms. Passing clouds.8 mph100%30.09 "HgN/A
9:00 PM72 °FThunderstorms. Passing clouds.9 mph94%30.09 "HgN/A
8:30 PM72 °FThunderstorms. Partly cloudy.9 mph100%30.09 "HgN/A
8:00 PM72 °FThunderstorms. Partly cloudy.10 mph100%30.07 "HgN/A
7:30 PM72 °FThundershowers. Passing clouds.9 mph100%30.04 "HgN/A
7:00 PM73 °FThundershowers. Passing clouds.10 mph89%30.04 "HgN/A
6:30 PM75 °FScattered clouds.13 mph83%30.01 "HgN/A
6:00 PM77 °FScattered clouds.8 mph74%30.01 "HgN/A
5:30 PM79 °FScattered clouds.5 mph70%29.98 "HgN/A
5:00 PM86 °FScattered clouds.3 mph55%29.98 "HgN/A
4:30 PM86 °FScattered clouds.3 mph52%29.98 "HgN/A
4:00 PM86 °FScattered clouds.3 mph52%29.98 "HgN/A
3:30 PM86 °FScattered clouds.6 mph55%29.98 "HgN/A
3:00 PM86 °FScattered clouds.5 mph49%29.98 "HgN/A
2:30 PM84 °FScattered clouds.5 mph48%30.01 "HgN/A
2:00 PM86 °FScattered clouds.5 mph55%30.01 "HgN/A
1:30 PM84 °FScattered clouds.5 mph62%30.01 "HgN/A
1:00 PM84 °FScattered clouds.2 mph66%30.04 "HgN/A
12:30 PM81 °FScattered clouds.2 mph74%30.04 "HgN/A
12:00 PM81 °FScattered clouds.3 mph70%30.07 "HgN/A
11:30 AM81 °FScattered clouds.2 mph70%30.07 "HgN/A
11:00 AM79 °FScattered clouds.3 mph70%30.07 "HgN/A
10:30 AM77 °FScattered clouds.2 mph79%30.07 "HgN/A
10:00 AM75 °FScattered clouds.2 mph89%30.09 "HgN/A
9:30 AM77 °FScattered clouds.3 mph89%30.09 "HgN/A
9:00 AM75 °FScattered clouds.1 mph89%30.09 "HgN/A
8:30 AM75 °FScattered clouds.1 mph94%30.09 "HgN/A
8:00 AM70 °FScattered clouds.2 mph94%30.09 "HgN/A
7:30 AM73 °FScattered clouds.No wind89%30.09 "HgN/A
7:00 AM70 °FPassing clouds.2 mph100%30.09 "HgN/A
6:30 AM68 °FPartly sunny.2 mph100%30.09 "HgN/A
6:00 AM66 °FPartly sunny.3 mph100%30.09 "HgN/A
5:30 AM66 °FPassing clouds.1 mph100%30.09 "HgN/A
5:00 AM64 °FPassing clouds.No wind100%30.07 "HgN/A
4:30 AM64 °FPassing clouds.2 mph100%30.07 "HgN/A
4:00 AM64 °FPassing clouds.2 mph100%30.07 "HgN/A
3:30 AM66 °FPassing clouds.2 mph100%30.07 "HgN/A
3:00 AM66 °FPassing clouds.2 mph100%30.07 "HgN/A
2:30 AM66 °FPassing clouds.2 mph100%30.07 "HgN/A
2:00 AM66 °FPassing clouds.2 mph100%30.07 "HgN/A
1:30 AM66 °FPassing clouds.2 mph100%30.09 "HgN/A
1:00 AM66 °FPassing clouds.5 mph100%30.09 "HgN/A
Weather by CustomWeather, © 2014

See weather overviewHow to use our weather pages